,,PA_Meas_PMT16A,,PR_Meas_QMR101_102,,RH_Meas_QMH101,,SR_Meas_QMS101,,TA_Meas_QMH101,,GenWind,,GenWind,
time,status,PA,status,PR,status,RH,status,SR,status,TA,status,DirAvg,status,SpdAvg,
2014-12-01, 00:00:04,VALID,917.425,VALID,0,VALID,93.8061,VALID,0,VALID,19.9578,VALID,17,VALID,0,
2014-12-01, 00:01:04,VALID,917.42,VALID,0,VALID,93.4936,VALID,0,VALID,19.9173,VALID,17,VALID,0,
2014-12-01, 00:02:04,VALID,917.422,VALID,0,VALID,93.1353,VALID,0,VALID,19.9173,VALID,17,VALID,0,
2014-12-01, 00:03:04,VALID,917.404,VALID,0,VALID,93.1429,VALID,0,VALID,19.8978,VALID,17,VALID,0,
2014-12-01, 00:04:04,VALID,917.385,VALID,0,VALID,93.3106,VALID,0,VALID,19.8978,VALID,17,VALID,0,
2014-12-01, 00:05:04,VALID,917.371,VALID,0,VALID,93.6155,VALID,0,VALID,19.8978,VALID,17,VALID,0,
2014-12-01, 00:06:04,VALID,917.397,VALID,0,VALID,94.012,VALID,0,VALID,19.8783,VALID,17,VALID,0,
2014-12-01, 00:07:04,VALID,917.372,VALID,0,VALID,94.4236,VALID,0,VALID,19.8978,VALID,16,VALID,0,
2014-12-01, 00:08:04,VALID,917.335,VALID,0,VALID,94.8277,VALID,0,VALID,19.8783,VALID,16,VALID,0.898047,
2014-12-01, 00:09:04,VALID,917.359,VALID,0,VALID,95.0259,VALID,0,VALID,19.8783,VALID,344,VALID,1.1082,
2014-12-01, 00:10:04,VALID,917.333,VALID,0,VALID,95.2317,VALID,0,VALID,19.8588,VALID,352,VALID,1.38594,
2014-12-01, 00:11:04,VALID,917.359,VALID,0,VALID,95.3918,VALID,0,VALID,19.8603,VALID,24,VALID,0.817187,
2014-12-01, 00:12:04,VALID,917.388,VALID,0,VALID,95.5138,VALID,0,VALID,19.8603,VALID,7,VALID,0,
2014-12-01, 00:13:04,VALID,917.367,VALID,0,VALID,95.6281,VALID,0,VALID,19.8603,VALID,333,VALID,0,
2014-12-01, 00:14:04,VALID,917.389,VALID,0,VALID,95.6891,VALID,0,VALID,19.8393,VALID,333,VALID,0,
2014-12-01, 00:15:04,VALID,917.373,VALID,0,VALID,95.7501,VALID,0,VALID,19.8603,VALID,333,VALID,0,
2014-12-01, 00:16:04,VALID,917.393,VALID,0,VALID,95.7349,VALID,0,VALID,19.8798,VALID,333,VALID,0,
2014-12-01, 00:17:04,VALID,917.37,VALID,0,VALID,95.8035,VALID,0,VALID,19.8978,VALID,333,VALID,0,
2014-12-01, 00:18:04,VALID,917.358,VALID,0,VALID,95.7577,VALID,0,VALID,19.8993,VALID,333,VALID,0,
2014-12-01, 00:19:04,VALID,917.367,VALID,0,VALID,95.8492,VALID,0,VALID,19.9398,VALID,333,VALID,0,
2014-12-01, 00:20:04,VALID,917.357,VALID,0,VALID,95.895,VALID,0,VALID,19.8573,VALID,333,VALID,0,
2014-12-01, 00:21:04,VALID,917.314,VALID,0,VALID,95.8568,VALID,0,VALID,19.8993,VALID,333,VALID,0,
2014-12-01, 00:22:04,VALID,917.304,VALID,0,VALID,95.9254,VALID,0,VALID,19.8783,VALID,333,VALID,0,
2014-12-01, 00:23:04,VALID,917.246,VALID,0,VALID,96.0474,VALID,0,VALID,19.8783,VALID,333,VALID,0,
2014-12-01, 00:24:04,VALID,917.245,VALID,0,VALID,96.1618,VALID,0,VALID,19.9414,VALID,333,VALID,0,
2014-12-01, 00:25:04,VALID,917.22,VALID,0,VALID,96.1923,VALID,0,VALID,19.8798,VALID,333,VALID,0,
2014-12-01, 00:26:04,VALID,917.216,VALID,0,VALID,96.2533,VALID,0,VALID,19.8783,VALID,333,VALID,0,
2014-12-01, 00:27:04,VALID,917.179,VALID,0,VALID,96.3295,VALID,0,VALID,19.8573,VALID,336,VALID,0,
2014-12-01, 00:28:04,VALID,917.176,VALID,0,VALID,96.3829,VALID,0,VALID,19.8183,VALID,336,VALID,0,
2014-12-01, 00:29:04,VALID,917.179,VALID,0,VALID,96.4819,VALID,0,VALID,19.8378,VALID,336,VALID,0,
2014-12-01, 00:30:04,VALID,917.161,VALID,0,VALID,96.5201,VALID,0,VALID,19.8603,VALID,344,VALID,0,
2014-12-01, 00:31:04,VALID,917.155,VALID,0,VALID,96.5734,VALID,0,VALID,19.8603,VALID,344,VALID,0,
2014-12-01, 00:32:04,VALID,917.169,VALID,0,VALID,96.6344,VALID,0,VALID,19.8198,VALID,344,VALID,0,
2014-12-01, 00:33:04,VALID,917.155,VALID,0,VALID,96.703,VALID,0,VALID,19.8603,VALID,344,VALID,0,
2014-12-01, 00:34:04,VALID,917.095,VALID,0,VALID,96.7488,VALID,0,VALID,19.8183,VALID,344,VALID,0,
2014-12-01, 00:35:04,VALID,917.073,VALID,0,VALID,96.7793,VALID,0,VALID,19.8618,VALID,344,VALID,0,
2014-12-01, 00:36:04,VALID,916.992,VALID,0,VALID,96.8021,VALID,0,VALID,19.8603,VALID,344,VALID,0,
2014-12-01, 00:37:04,VALID,916.929,VALID,0,VALID,96.7945,VALID,0,VALID,19.8393,VALID,344,VALID,0,
2014-12-01, 00:38:04,VALID,916.891,VALID,0,VALID,96.8403,VALID,0,VALID,19.8813,VALID,344,VALID,0,
2014-12-01, 00:39:04,VALID,916.847,VALID,0,VALID,96.8631,VALID,0,VALID,19.8393,VALID,344,VALID,0,
2014-12-01, 00:40:04,VALID,916.866,VALID,0,VALID,96.8707,VALID,0,VALID,19.8408,VALID,344,VALID,0,
2014-12-01, 00:41:04,VALID,916.838,VALID,0,VALID,96.8936,VALID,0,VALID,19.8213,VALID,344,VALID,0,
2014-12-01, 00:42:04,VALID,916.831,VALID,0,VALID,96.9012,VALID,0,VALID,19.7808,VALID,344,VALID,0,
2014-12-01, 00:43:04,VALID,916.779,VALID,0,VALID,96.9241,VALID,0,VALID,19.8018,VALID,344,VALID,0,
2014-12-01, 00:44:04,VALID,916.76,VALID,0,VALID,96.9546,VALID,0,VALID,19.8033,VALID,344,VALID,0,
2014-12-01, 00:45:04,VALID,916.799,VALID,0,VALID,96.9851,VALID,0,VALID,19.8018,VALID,344,VALID,0,
2014-12-01, 00:46:04,VALID,916.797,VALID,0,VALID,97.0156,VALID,0,VALID,19.7613,VALID,344,VALID,0,
2014-12-01, 00:47:04,VALID,916.777,VALID,0,VALID,97.0308,VALID,0,VALID,19.7823,VALID,344,VALID,0,
2014-12-01, 00:48:04,VALID,916.738,VALID,0,VALID,97.0308,VALID,0,VALID,19.7823,VALID,344,VALID,0,
2014-12-01, 00:49:04,VALID,916.744,VALID,0,VALID,97.0156,VALID,0,VALID,19.7628,VALID,344,VALID,0,
2014-12-01, 00:50:04,VALID,916.72,VALID,0,VALID,96.9622,VALID,0,VALID,19.7433,VALID,344,VALID,0,
2014-12-01, 00:51:04,VALID,916.691,VALID,0,VALID,96.9546,VALID,0,VALID,19.7433,VALID,344,VALID,0,
2014-12-01, 00:52:04,VALID,916.716,VALID,0,VALID,96.9317,VALID,0,VALID,19.7223,VALID,344,VALID,0,
2014-12-01, 00:53:04,VALID,916.676,VALID,0,VALID,96.9394,VALID,0,VALID,19.7433,VALID,344,VALID,0,
2014-12-01, 00:54:04,VALID,916.68,VALID,0,VALID,96.9394,VALID,0,VALID,19.7238,VALID,344,VALID,0,
2014-12-01, 00:55:04,VALID,916.69,VALID,0,VALID,96.9394,VALID,0,VALID,19.7433,VALID,344,VALID,0,
2014-12-01, 00:56:04,VALID,916.695,VALID,0,VALID,96.9394,VALID,0,VALID,19.7238,VALID,344,VALID,0,
2014-12-01, 00:57:04,VALID,916.691,VALID,0,VALID,96.9775,VALID,0,VALID,19.7433,VALID,344,VALID,0,
2014-12-01, 00:58:04,VALID,916.677,VALID,0,VALID,96.9698,VALID,0,VALID,19.7658,VALID,344,VALID,0,
2014-12-01, 00:59:04,VALID,916.679,VALID,0,VALID,97.008,VALID,0,VALID,19.7643,VALID,344,VALID,0,
2014-12-01, 01:00:04,VALID,916.67,VALID,0,VALID,97.0003,VALID,0,VALID,19.7223,VALID,344,VALID,0,
2014-12-01, 01:01:04,VALID,916.669,VALID,0,VALID,96.9927,VALID,0,VALID,19.7238,VALID,344,VALID,0,
2014-12-01, 01:02:04,VALID,916.662,VALID,0,VALID,96.9927,VALID,0,VALID,19.7238,VALID,344,VALID,0,
2014-12-01, 01:03:04,VALID,916.695,VALID,0,VALID,96.9546,VALID,0,VALID,19.6833,VALID,344,VALID,0,
2014-12-01, 01:04:04,VALID,916.684,VALID,0,VALID,96.9546,VALID,0,VALID,19.6848,VALID,344,VALID,0,
2014-12-01, 01:05:04,VALID,916.718,VALID,0,VALID,96.9622,VALID,0,VALID,19.6653,VALID,344,VALID,0,
2014-12-01, 01:06:04,VALID,916.71,VALID,0,VALID,96.9622,VALID,0,VALID,19.6653,VALID,344,VALID,0,
2014-12-01, 01:07:04,VALID,916.677,VALID,0,VALID,96.9698,VALID,0,VALID,19.6458,VALID,344,VALID,0,
2014-12-01, 01:08:04,VALID,916.677,VALID,0,VALID,96.9546,VALID,0,VALID,19.6248,VALID,344,VALID,0,
2014-12-01, 01:09:04,VALID,916.64,VALID,0,VALID,96.9851,VALID,0,VALID,19.6053,VALID,344,VALID,0,
2014-12-01, 01:10:04,VALID,916.645,VALID,0,VALID,96.9927,VALID,0,VALID,19.6248,VALID,344,VALID,0,
2014-12-01, 01:11:04,VALID,916.614,VALID,0,VALID,97.0003,VALID,0,VALID,19.6458,VALID,344,VALID,0,
2014-12-01, 01:12:04,VALID,916.655,VALID,0,VALID,97.008,VALID,0,VALID,19.5873,VALID,344,VALID,0,
2014-12-01, 01:13:04,VALID,916.647,VALID,0,VALID,96.9927,VALID,0,VALID,19.5663,VALID,344,VALID,0,
2014-12-01, 01:14:04,VALID,916.647,VALID,0,VALID,97.008,VALID,0,VALID,19.5273,VALID,344,VALID,0,
2014-12-01, 01:15:04,VALID,916.622,VALID,0,VALID,96.9622,VALID,0,VALID,19.4883,VALID,344,VALID,0,
2014-12-01, 01:16:04,VALID,916.63,VALID,0,VALID,96.9165,VALID,0,VALID,19.4898,VALID,344,VALID,0,
2014-12-01, 01:17:04,VALID,916.636,VALID,0,VALID,96.8936,VALID,0,VALID,19.4298,VALID,344,VALID,0,
2014-12-01, 01:18:04,VALID,916.648,VALID,0,VALID,96.8707,VALID,0,VALID,19.4103,VALID,343,VALID,0,
2014-12-01, 01:19:04,VALID,916.605,VALID,0,VALID,96.8403,VALID,0,VALID,19.4103,VALID,341,VALID,0.00195313,
2014-12-01, 01:20:04,VALID,916.595,VALID,0,VALID,96.825,VALID,0,VALID,19.4313,VALID,341,VALID,0,
2014-12-01, 01:21:04,VALID,916.58,VALID,0,VALID,96.7945,VALID,0,VALID,19.4103,VALID,341,VALID,0,
2014-12-01, 01:22:04,VALID,916.596,VALID,0,VALID,96.7869,VALID,0,VALID,19.4298,VALID,341,VALID,0,
2014-12-01, 01:23:04,VALID,916.553,VALID,0,VALID,96.7488,VALID,0,VALID,19.4508,VALID,341,VALID,0,
2014-12-01, 01:24:04,VALID,916.542,VALID,0,VALID,96.7259,VALID,0,VALID,19.4298,VALID,341,VALID,0,
2014-12-01, 01:25:04,VALID,916.535,VALID,0,VALID,96.7183,VALID,0,VALID,19.4508,VALID,341,VALID,0,
2014-12-01, 01:26:04,VALID,916.52,VALID,0,VALID,96.7183,VALID,0,VALID,19.4703,VALID,341,VALID,0,
2014-12-01, 01:27:04,VALID,916.466,VALID,0,VALID,96.7488,VALID,0,VALID,19.4703,VALID,341,VALID,0,
2014-12-01, 01:28:04,VALID,916.415,VALID,0,VALID,96.7945,VALID,0,VALID,19.4493,VALID,341,VALID,0,
2014-12-01, 01:29:04,VALID,916.425,VALID,0,VALID,96.8174,VALID,0,VALID,19.4688,VALID,341,VALID,0,
2014-12-01, 01:30:04,VALID,916.4,VALID,0,VALID,96.8479,VALID,0,VALID,19.5093,VALID,341,VALID,0,
2014-12-01, 01:31:04,VALID,916.345,VALID,0,VALID,96.8631,VALID,0,VALID,19.5078,VALID,341,VALID,0,
2014-12-01, 01:32:04,VALID,916.345,VALID,0,VALID,96.9241,VALID,0,VALID,19.5093,VALID,341,VALID,0,
2014-12-01, 01:33:04,VALID,916.329,VALID,0,VALID,96.9698,VALID,0,VALID,19.4883,VALID,341,VALID,0,
2014-12-01, 01:34:04,VALID,916.292,VALID,0,VALID,96.9775,VALID,0,VALID,19.5078,VALID,341,VALID,0,
2014-12-01, 01:35:04,VALID,916.293,VALID,0,VALID,97.008,VALID,0,VALID,19.5078,VALID,341,VALID,0,
2014-12-01, 01:36:04,VALID,916.258,VALID,0,VALID,97.0003,VALID,0,VALID,19.4883,VALID,341,VALID,0,
2014-12-01, 01:37:04,VALID,916.273,VALID,0,VALID,97.008,VALID,0,VALID,19.4883,VALID,341,VALID,0,
2014-12-01, 01:38:04,VALID,916.245,VALID,0,VALID,97.0232,VALID,0,VALID,19.5093,VALID,341,VALID,0,
2014-12-01, 01:39:04,VALID,916.243,VALID,0,VALID,97.0385,VALID,0,VALID,19.4898,VALID,341,VALID,0,
2014-12-01, 01:40:04,VALID,916.187,VALID,0,VALID,97.0385,VALID,0,VALID,19.4688,VALID,341,VALID,0,
2014-12-01, 01:41:04,VALID,916.175,VALID,0,VALID,97.0918,VALID,0,VALID,19.4883,VALID,341,VALID,0,
2014-12-01, 01:42:04,VALID,916.163,VALID,0,VALID,97.1299,VALID,0,VALID,19.5288,VALID,341,VALID,0,
2014-12-01, 01:43:04,VALID,916.1,VALID,0,VALID,97.1604,VALID,0,VALID,19.5483,VALID,341,VALID,0,
2014-12-01, 01:44:04,VALID,916.119,VALID,0,VALID,97.1757,VALID,0,VALID,19.5678,VALID,341,VALID,0,
2014-12-01, 01:45:04,VALID,916.098,VALID,0,VALID,97.1757,VALID,0,VALID,19.5678,VALID,341,VALID,0,
2014-12-01, 01:46:04,VALID,916.111,VALID,0,VALID,97.1833,VALID,0,VALID,19.5468,VALID,341,VALID,0,
2014-12-01, 01:47:04,VALID,916.09,VALID,0,VALID,97.1833,VALID,0,VALID,19.5483,VALID,341,VALID,0,
2014-12-01, 01:48:04,VALID,916.041,VALID,0,VALID,97.1757,VALID,0,VALID,19.5468,VALID,341,VALID,0,
2014-12-01, 01:49:04,VALID,916.054,VALID,0,VALID,97.1833,VALID,0,VALID,19.5273,VALID,341,VALID,0,
2014-12-01, 01:50:04,VALID,916.005,VALID,0,VALID,97.1681,VALID,0,VALID,19.5078,VALID,341,VALID,0,
2014-12-01, 01:51:04,VALID,915.941,VALID,0,VALID,97.1757,VALID,0,VALID,19.5078,VALID,341,VALID,0,
2014-12-01, 01:52:04,VALID,915.967,VALID,0,VALID,97.1833,VALID,0,VALID,19.4883,VALID,341,VALID,0,
2014-12-01, 01:53:04,VALID,915.963,VALID,0,VALID,97.2062,VALID,0,VALID,19.5483,VALID,341,VALID,0,
2014-12-01, 01:54:04,VALID,915.939,VALID,0,VALID,97.229,VALID,0,VALID,19.5273,VALID,341,VALID,0,
2014-12-01, 01:55:04,VALID,915.943,VALID,0,VALID,97.2672,VALID,0,VALID,19.5678,VALID,341,VALID,0,
2014-12-01, 01:56:04,VALID,915.904,VALID,0,VALID,97.2748,VALID,0,VALID,19.5663,VALID,341,VALID,0,
2014-12-01, 01:57:04,VALID,915.925,VALID,0,VALID,97.2748,VALID,0,VALID,19.5873,VALID,341,VALID,0,
2014-12-01, 01:58:04,VALID,915.894,VALID,0,VALID,97.2748,VALID,0,VALID,19.5678,VALID,341,VALID,0,
2014-12-01, 01:59:04,VALID,915.912,VALID,0,VALID,97.2595,VALID,0,VALID,19.5678,VALID,341,VALID,0,
2014-12-01, 02:00:04,VALID,915.886,VALID,0,VALID,97.2595,VALID,0,VALID,19.5873,VALID,341,VALID,0,
2014-12-01, 02:01:04,VALID,915.859,VALID,0,VALID,97.2595,VALID,0,VALID,19.5873,VALID,341,VALID,0,
2014-12-01, 02:02:04,VALID,915.818,VALID,0,VALID,97.2748,VALID,0,VALID,19.6068,VALID,341,VALID,0,
2014-12-01, 02:03:04,VALID,915.788,VALID,0,VALID,97.2519,VALID,0,VALID,19.5858,VALID,341,VALID,0,
2014-12-01, 02:04:04,VALID,915.745,VALID,0,VALID,97.2519,VALID,0,VALID,19.5663,VALID,341,VALID,0,
2014-12-01, 02:05:04,VALID,915.732,VALID,0,VALID,97.2595,VALID,0,VALID,19.5873,VALID,341,VALID,0,
2014-12-01, 02:06:04,VALID,915.754,VALID,0,VALID,97.2367,VALID,0,VALID,19.6068,VALID,341,VALID,0,
2014-12-01, 02:07:04,VALID,915.712,VALID,0,VALID,97.2214,VALID,0,VALID,19.6068,VALID,341,VALID,0,
2014-12-01, 02:08:04,VALID,915.684,VALID,0,VALID,97.2138,VALID,0,VALID,19.6068,VALID,341,VALID,0,
2014-12-01, 02:09:04,VALID,915.707,VALID,0,VALID,97.229,VALID,0,VALID,19.5858,VALID,341,VALID,0,
2014-12-01, 02:10:04,VALID,915.706,VALID,0,VALID,97.2138,VALID,0,VALID,19.6068,VALID,341,VALID,0,
2014-12-01, 02:11:04,VALID,915.715,VALID,0,VALID,97.1833,VALID,0,VALID,19.5663,VALID,341,VALID,0,
2014-12-01, 02:12:04,VALID,915.683,VALID,0,VALID,97.1604,VALID,0,VALID,19.5483,VALID,341,VALID,0,
2014-12-01, 02:13:04,VALID,915.687,VALID,0,VALID,97.1528,VALID,0,VALID,19.5288,VALID,341,VALID,0,
2014-12-01, 02:14:04,VALID,915.723,VALID,0,VALID,97.1681,VALID,0,VALID,19.5288,VALID,341,VALID,0,
2014-12-01, 02:15:04,VALID,915.685,VALID,0,VALID,97.1604,VALID,0,VALID,19.5288,VALID,341,VALID,0,
2014-12-01, 02:16:04,VALID,915.683,VALID,0,VALID,97.1681,VALID,0,VALID,19.5483,VALID,341,VALID,0,
2014-12-01, 02:17:04,VALID,915.669,VALID,0,VALID,97.1757,VALID,0,VALID,19.5078,VALID,342,VALID,0,
2014-12-01, 02:18:04,VALID,915.63,VALID,0,VALID,97.1528,VALID,0,VALID,19.5093,VALID,344,VALID,0,
2014-12-01, 02:19:04,VALID,915.638,VALID,0,VALID,97.1376,VALID,0,VALID,19.5093,VALID,344,VALID,0,
2014-12-01, 02:20:04,VALID,915.651,VALID,0,VALID,97.1604,VALID,0,VALID,19.5093,VALID,344,VALID,0,
2014-12-01, 02:21:04,VALID,915.638,VALID,0,VALID,97.1681,VALID,0,VALID,19.5093,VALID,344,VALID,0,
2014-12-01, 02:22:04,VALID,915.656,VALID,0,VALID,97.1757,VALID,0,VALID,19.5093,VALID,344,VALID,0,
2014-12-01, 02:23:04,VALID,915.637,VALID,0,VALID,97.1909,VALID,0,VALID,19.5288,VALID,344,VALID,0,
2014-12-01, 02:24:04,VALID,915.656,VALID,0,VALID,97.1986,VALID,0,VALID,19.5078,VALID,344,VALID,0,
2014-12-01, 02:25:04,VALID,915.644,VALID,0,VALID,97.1833,VALID,0,VALID,19.5288,VALID,344,VALID,0,
2014-12-01, 02:26:04,VALID,915.652,VALID,0,VALID,97.1452,VALID,0,VALID,19.5078,VALID,344,VALID,0,
2014-12-01, 02:27:04,VALID,915.661,VALID,0,VALID,97.1604,VALID,0,VALID,19.5093,VALID,344,VALID,0,
2014-12-01, 02:28:04,VALID,915.628,VALID,0,VALID,97.1376,VALID,0,VALID,19.4883,VALID,344,VALID,0,
2014-12-01, 02:29:04,VALID,915.647,VALID,0,VALID,97.1147,VALID,0,VALID,19.4688,VALID,344,VALID,0,
2014-12-01, 02:30:04,VALID,915.644,VALID,0,VALID,97.1147,VALID,0,VALID,19.4898,VALID,344,VALID,0,
2014-12-01, 02:31:04,VALID,915.664,VALID,0,VALID,97.0842,VALID,0,VALID,19.4688,VALID,344,VALID,0,
2014-12-01, 02:32:04,VALID,915.666,VALID,0,VALID,97.0842,VALID,0,VALID,19.4688,VALID,344,VALID,0,
2014-12-01, 02:33:04,VALID,915.655,VALID,0,VALID,97.0766,VALID,0,VALID,19.4703,VALID,344,VALID,0,
2014-12-01, 02:34:04,VALID,915.653,VALID,0,VALID,97.069,VALID,0,VALID,19.4688,VALID,344,VALID,0,
2014-12-01, 02:35:04,VALID,915.674,VALID,0,VALID,97.0766,VALID,0,VALID,19.5288,VALID,344,VALID,0,
2014-12-01, 02:36:04,VALID,915.685,VALID,0,VALID,97.0232,VALID,0,VALID,19.5288,VALID,344,VALID,0,
2014-12-01, 02:37:04,VALID,915.681,VALID,0,VALID,96.9775,VALID,0,VALID,19.5288,VALID,344,VALID,0,
2014-12-01, 02:38:04,VALID,915.674,VALID,0,VALID,96.9317,VALID,0,VALID,19.5273,VALID,344,VALID,0,
2014-12-01, 02:39:04,VALID,915.683,VALID,0,VALID,96.8479,VALID,0,VALID,19.5693,VALID,344,VALID,0,
2014-12-01, 02:40:04,VALID,915.668,VALID,0,VALID,96.7869,VALID,0,VALID,19.5678,VALID,344,VALID,0,
2014-12-01, 02:41:04,VALID,915.679,VALID,0,VALID,96.6497,VALID,0,VALID,19.5678,VALID,344,VALID,0,
2014-12-01, 02:42:04,VALID,915.674,VALID,0,VALID,96.4743,VALID,0,VALID,19.5663,VALID,344,VALID,0,
2014-12-01, 02:43:04,VALID,915.675,VALID,0,VALID,96.238,VALID,0,VALID,19.6263,VALID,344,VALID,0,
2014-12-01, 02:44:04,VALID,915.634,VALID,0,VALID,95.9712,VALID,0,VALID,19.6458,VALID,344,VALID,0,
2014-12-01, 02:45:04,VALID,915.658,VALID,0,VALID,95.6891,VALID,0,VALID,19.6848,VALID,343,VALID,0,
2014-12-01, 02:46:04,VALID,915.623,VALID,0,VALID,95.5824,VALID,0,VALID,19.7028,VALID,342,VALID,0,
2014-12-01, 02:47:04,VALID,915.615,VALID,0,VALID,95.5748,VALID,0,VALID,19.7238,VALID,342,VALID,0,
2014-12-01, 02:48:04,VALID,915.62,VALID,0,VALID,95.5443,VALID,0,VALID,19.7028,VALID,342,VALID,0,
2014-12-01, 02:49:04,VALID,915.623,VALID,0,VALID,95.4909,VALID,0,VALID,19.7028,VALID,342,VALID,0,
2014-12-01, 02:50:04,VALID,915.588,VALID,0,VALID,95.5214,VALID,0,VALID,19.7628,VALID,342,VALID,0,
2014-12-01, 02:51:04,VALID,915.583,VALID,0,VALID,95.5519,VALID,0,VALID,19.7223,VALID,342,VALID,0,
2014-12-01, 02:52:04,VALID,915.567,VALID,0,VALID,95.5824,VALID,0,VALID,19.7418,VALID,342,VALID,0,
2014-12-01, 02:53:04,VALID,915.568,VALID,0,VALID,95.5976,VALID,0,VALID,19.7823,VALID,342,VALID,0,
2014-12-01, 02:54:04,VALID,915.554,VALID,0,VALID,95.6281,VALID,0,VALID,19.7808,VALID,342,VALID,0,
2014-12-01, 02:55:04,VALID,915.532,VALID,0,VALID,95.6281,VALID,0,VALID,19.7823,VALID,342,VALID,0,
2014-12-01, 02:56:04,VALID,915.491,VALID,0,VALID,95.6739,VALID,0,VALID,19.8003,VALID,342,VALID,0,
2014-12-01, 02:57:04,VALID,915.504,VALID,0,VALID,95.6739,VALID,0,VALID,19.7808,VALID,342,VALID,0,
2014-12-01, 02:58:04,VALID,915.472,VALID,0,VALID,95.6586,VALID,0,VALID,19.8018,VALID,342,VALID,0,
2014-12-01, 02:59:04,VALID,915.461,VALID,0,VALID,95.6891,VALID,0,VALID,19.8003,VALID,342,VALID,0,
2014-12-01, 03:00:04,VALID,915.446,VALID,0,VALID,95.6967,VALID,0,VALID,19.8213,VALID,342,VALID,0,
2014-12-01, 03:01:04,VALID,915.453,VALID,0,VALID,95.7044,VALID,0,VALID,19.7808,VALID,344,VALID,0,
2014-12-01, 03:02:04,VALID,915.487,VALID,0,VALID,95.7806,VALID,0,VALID,19.7628,VALID,344,VALID,0,
2014-12-01, 03:03:04,VALID,915.536,VALID,0,VALID,95.8492,VALID,0,VALID,19.7223,VALID,344,VALID,0,
2014-12-01, 03:04:04,VALID,915.518,VALID,0,VALID,95.9102,VALID,0,VALID,19.7223,VALID,344,VALID,0,
2014-12-01, 03:05:04,VALID,915.524,VALID,0,VALID,95.9712,VALID,0,VALID,19.6833,VALID,344,VALID,0,
2014-12-01, 03:06:04,VALID,915.539,VALID,0,VALID,96.0245,VALID,0,VALID,19.6443,VALID,344,VALID,0,
2014-12-01, 03:07:04,VALID,915.511,VALID,0,VALID,96.0932,VALID,0,VALID,19.6263,VALID,344,VALID,0,
2014-12-01, 03:08:04,VALID,915.509,VALID,0,VALID,96.177,VALID,0,VALID,19.6068,VALID,344,VALID,0,
2014-12-01, 03:09:04,VALID,915.506,VALID,0,VALID,96.2533,VALID,0,VALID,19.5873,VALID,344,VALID,0,
2014-12-01, 03:10:04,VALID,915.51,VALID,0,VALID,96.2761,VALID,0,VALID,19.5873,VALID,344,VALID,0,
2014-12-01, 03:11:04,VALID,915.479,VALID,0,VALID,96.2837,VALID,0,VALID,19.5678,VALID,344,VALID,0,
2014-12-01, 03:12:04,VALID,915.495,VALID,0,VALID,96.3295,VALID,0,VALID,19.5873,VALID,344,VALID,0,
2014-12-01, 03:13:04,VALID,915.473,VALID,0,VALID,96.3524,VALID,0,VALID,19.5678,VALID,344,VALID,0,
2014-12-01, 03:14:04,VALID,915.445,VALID,0,VALID,96.3219,VALID,0,VALID,19.5678,VALID,344,VALID,0,
2014-12-01, 03:15:04,VALID,915.449,VALID,0,VALID,96.3295,VALID,0,VALID,19.5873,VALID,344,VALID,0,
2014-12-01, 03:16:04,VALID,915.414,VALID,0,VALID,96.3219,VALID,0,VALID,19.6068,VALID,344,VALID,0,
2014-12-01, 03:17:04,VALID,915.408,VALID,0,VALID,96.3219,VALID,0,VALID,19.6068,VALID,344,VALID,0,
2014-12-01, 03:18:04,VALID,915.38,VALID,0,VALID,96.2837,VALID,0,VALID,19.6263,VALID,344,VALID,0,
2014-12-01, 03:19:04,VALID,915.394,VALID,0,VALID,96.2304,VALID,0,VALID,19.6458,VALID,344,VALID,0,
2014-12-01, 03:20:04,VALID,915.379,VALID,0,VALID,96.1694,VALID,0,VALID,19.6458,VALID,344,VALID,0,
2014-12-01, 03:21:04,VALID,915.366,VALID,0,VALID,96.116,VALID,0,VALID,19.6653,VALID,344,VALID,0,
2014-12-01, 03:22:04,VALID,915.396,VALID,0,VALID,96.1084,VALID,0,VALID,19.6848,VALID,344,VALID,0,
2014-12-01, 03:23:04,VALID,915.377,VALID,0,VALID,96.1084,VALID,0,VALID,19.7238,VALID,344,VALID,0,
2014-12-01, 03:24:04,VALID,915.379,VALID,0,VALID,96.0932,VALID,0,VALID,19.7433,VALID,344,VALID,0,
2014-12-01, 03:25:04,VALID,915.392,VALID,0,VALID,96.0779,VALID,0,VALID,19.7628,VALID,344,VALID,0,
2014-12-01, 03:26:04,VALID,915.364,VALID,0,VALID,96.0169,VALID,0,VALID,19.7628,VALID,344,VALID,0,
2014-12-01, 03:27:04,VALID,915.359,VALID,0,VALID,95.9178,VALID,0,VALID,19.7223,VALID,344,VALID,0,
2014-12-01, 03:28:04,VALID,915.363,VALID,0,VALID,95.8645,VALID,0,VALID,19.7238,VALID,344,VALID,0,
2014-12-01, 03:29:04,VALID,915.347,VALID,0,VALID,95.8263,VALID,0,VALID,19.7043,VALID,344,VALID,0,
2014-12-01, 03:30:04,VALID,915.357,VALID,0,VALID,95.8263,VALID,0,VALID,19.7043,VALID,344,VALID,0,
2014-12-01, 03:31:04,VALID,915.345,VALID,0,VALID,95.9026,VALID,0,VALID,19.7238,VALID,344,VALID,0,
2014-12-01, 03:32:04,VALID,915.359,VALID,0,VALID,95.8187,VALID,0,VALID,19.6848,VALID,344,VALID,0,
2014-12-01, 03:33:04,VALID,915.367,VALID,0,VALID,95.7882,VALID,0,VALID,19.6443,VALID,344,VALID,0,
2014-12-01, 03:34:04,VALID,915.337,VALID,0,VALID,95.8263,VALID,0,VALID,19.6458,VALID,344,VALID,0,
2014-12-01, 03:35:04,VALID,915.359,VALID,0,VALID,95.9407,VALID,0,VALID,19.6458,VALID,344,VALID,0,
2014-12-01, 03:36:05,VALID,915.374,VALID,0,VALID,95.9407,VALID,0,VALID,19.6248,VALID,344,VALID,0,
2014-12-01, 03:37:05,VALID,915.386,VALID,0,VALID,95.8797,VALID,0,VALID,19.6068,VALID,343,VALID,0,
2014-12-01, 03:38:05,VALID,915.387,VALID,0,VALID,95.8721,VALID,0,VALID,19.6068,VALID,343,VALID,0,
2014-12-01, 03:39:05,VALID,915.402,VALID,0,VALID,95.8111,VALID,0,VALID,19.6068,VALID,343,VALID,0,
2014-12-01, 03:40:05,VALID,915.414,VALID,0,VALID,95.773,VALID,0,VALID,19.5858,VALID,343,VALID,0,
2014-12-01, 03:41:05,VALID,915.432,VALID,0,VALID,95.7349,VALID,0,VALID,19.6068,VALID,343,VALID,0,
2014-12-01, 03:42:05,VALID,915.45,VALID,0,VALID,95.7654,VALID,0,VALID,19.6263,VALID,343,VALID,0,
2014-12-01, 03:43:05,VALID,915.474,VALID,0,VALID,95.7349,VALID,0,VALID,19.6053,VALID,343,VALID,0,
2014-12-01, 03:44:05,VALID,915.49,VALID,0,VALID,95.7349,VALID,0,VALID,19.6248,VALID,343,VALID,0,
2014-12-01, 03:45:05,VALID,915.512,VALID,0,VALID,95.8187,VALID,0,VALID,19.6653,VALID,343,VALID,0,
2014-12-01, 03:46:05,VALID,915.515,VALID,0,VALID,95.8263,VALID,0,VALID,19.6443,VALID,343,VALID,0,
2014-12-01, 03:47:05,VALID,915.497,VALID,0,VALID,95.7577,VALID,0,VALID,19.6248,VALID,343,VALID,0,
2014-12-01, 03:48:05,VALID,915.498,VALID,0,VALID,95.7349,VALID,0,VALID,19.6053,VALID,343,VALID,0,
2014-12-01, 03:49:05,VALID,915.508,VALID,0,VALID,95.6662,VALID,0,VALID,19.6053,VALID,344,VALID,0,
2014-12-01, 03:50:05,VALID,915.484,VALID,0,VALID,95.7044,VALID,0,VALID,19.5858,VALID,344,VALID,0,
2014-12-01, 03:51:05,VALID,915.486,VALID,0,VALID,95.7501,VALID,0,VALID,19.6068,VALID,345,VALID,0,
2014-12-01, 03:52:05,VALID,915.47,VALID,0,VALID,95.7044,VALID,0,VALID,19.5873,VALID,345,VALID,0,
2014-12-01, 03:53:05,VALID,915.501,VALID,0,VALID,95.651,VALID,0,VALID,19.5873,VALID,345,VALID,0,
2014-12-01, 03:54:05,VALID,915.474,VALID,0,VALID,95.6053,VALID,0,VALID,19.5873,VALID,345,VALID,0,
2014-12-01, 03:55:05,VALID,915.473,VALID,0,VALID,95.529,VALID,0,VALID,19.5858,VALID,345,VALID,0,
2014-12-01, 03:56:05,VALID,915.47,VALID,0,VALID,95.4909,VALID,0,VALID,19.6053,VALID,345,VALID,0,
2014-12-01, 03:57:05,VALID,915.484,VALID,0,VALID,95.1555,VALID,0,VALID,19.6068,VALID,344,VALID,0,
2014-12-01, 03:58:05,VALID,915.508,VALID,0,VALID,94.7362,VALID,0,VALID,19.6458,VALID,342,VALID,0,
2014-12-01, 03:59:05,VALID,915.503,VALID,0,VALID,94.5532,VALID,0,VALID,19.7043,VALID,342,VALID,0,